FW9103 Weather Reports


time (UTC)temp
C
wind
direction
speed
KPH
gust
KPH
rain 1hr
cm
rain 24hr
cm
rain mn
cm
humidity
%
barometer
mb
20260508005021 10 236 0.0 1.6 0.00 1.07 0.99 82 1006.3
20260508004021 10 236 0.0 1.6 0.00 1.22 0.99 81 1005.8
20260508003021 11 0.0 0.0 0.00 1.35 0.99 80 1005.8
20260508002021 11 0.0 0.0 0.00 1.42 0.99 79 1005.8
20260508001021 12 0.0 0.0 0.00 1.45 0.99 77 1005.7
20260508000021 12 0.0 0.0 0.00 1.47 0.99 75 1005.8
20260507235021 13 0.0 0.0 0.00 1.50 0.99 73 1005.8
20260507234021 13 251 0.0 3.2 0.00 1.52 0.99 71 1005.8
20260507233021 14 193 0.0 1.6 0.00 1.60 0.99 70 1005.7
20260507232021 15 190 0.0 1.6 0.00 1.70 0.99 67 1005.5
20260507231021 16 208 0.0 1.6 0.00 1.78 0.99 65 1005.4
20260507230022 16 233 0.0 3.2 0.00 1.85 0.99 64 1005.4
20260507225029 16 258 0.0 6.4 0.00 1.85 0.99 65 1005.4
20260507224022 17 273 1.6 4.8 0.00 1.85 0.99 64 1005.3
20260507223022 17 247 0.0 3.2 0.00 1.85 0.99 68 1005.3
20260507222021 17 284 1.6 4.8 0.00 1.85 0.99 69 1005.5
20260507221022 17 239 1.6 4.8 0.00 1.85 0.99 68 1005.4
20260507220021 17 160 1.6 3.2 0.00 1.85 0.99 69 1005.4
20260507215022 17 166 1.6 3.2 0.00 1.85 0.99 70 1005.3
20260507214021 16 188 1.6 6.4 0.00 1.85 0.99 72 1005.3
20260507213022 16 152 1.6 4.8 0.00 1.85 0.99 71 1005.3
20260507212022 16 291 1.6 4.8 0.00 1.85 0.99 74 1005.1
20260507211022 15 294 3.2 8.0 0.00 1.85 0.99 75 1005.2
20260507210021 16 229 1.6 4.8 0.00 1.85 0.99 73 1005.2
20260507205022 16 188 1.6 4.8 0.00 1.85 0.99 72 1005.0
20260507204022 17 248 1.6 6.4 0.00 1.85 0.99 70 1005.0
20260507203021 17 222 3.2 9.7 0.00 1.85 0.99 69 1004.7
20260507202021 17 241 1.6 4.8 0.00 1.85 0.99 70 1004.8
20260507201022 17 154 3.2 4.8 0.00 1.85 0.99 69 1004.8
20260507200022 17 173 3.2 6.4 0.00 1.85 0.99 69 1004.9
20260507195022 17 175 1.6 6.4 0.00 1.85 0.99 71 1005.1
20260507194022 17 170 3.2 8.0 0.00 1.85 0.99 68 1005.3
20260507193022 16 168 3.2 8.0 0.00 1.85 0.99 68 1005.4
20260507192022 16 156 3.2 9.7 0.00 1.85 0.99 68 1005.6
20260507191022 16 172 3.2 6.4 0.00 1.85 0.99 68 1005.8
20260507190022 16 294 3.2 8.0 0.00 1.85 0.99 57 1005.9
20260507185022 16 317 3.2 8.0 0.00 1.85 0.99 58 1005.9
20260507184022 16 330 3.2 8.0 0.00 1.85 0.99 57 1006.1
20260507183022 15 301 3.2 9.7 0.00 1.85 0.99 62 1006.1
20260507182022 16 317 3.2 6.4 0.00 1.85 0.99 63 1006.2
20260507181022 15 286 1.6 6.4 0.00 1.85 0.99 61 1006.3
20260507180021 15 324 3.2 6.4 0.00 1.85 0.99 68 1006.6
20260507175022 14 319 1.6 4.8 0.00 1.85 0.99 74 1006.7
20260507174022 13 335 3.2 9.7 0.00 1.85 0.99 74 1006.7
20260507173022 13 308 3.2 8.0 0.00 1.85 0.99 75 1006.6
20260507172022 13 298 1.6 9.7 0.00 1.85 0.99 77 1006.6
20260507171022 13 285 3.2 12.9 0.00 1.85 0.99 76 1006.9
20260507170022 13 302 3.2 11.3 0.00 1.85 0.99 77 1007.1
20260507165022 12 311 4.8 9.7 0.00 1.85 0.99 79 1007.0
20260507164022 12 312 4.8 16.1 0.00 1.85 0.99 78 1007.1
20260507163022 12 314 3.2 9.7 0.00 1.85 0.99 81 1007.2
20260507162022 12 305 4.8 14.5 0.00 1.85 0.99 82 1007.2
20260507161022 12 355 3.2 11.3 0.00 1.85 0.99 82 1007.2
20260507160022 12 310 4.8 12.9 0.00 1.85 0.99 83 1007.4
20260507155022 12 307 4.8 16.1 0.00 1.85 0.99 85 1007.5
20260507154022 11 307 4.8 12.9 0.00 1.85 0.99 87 1007.6
20260507153022 11 297 4.8 16.1 0.00 1.85 0.99 88 1007.6
20260507152022 11 296 3.2 11.3 0.00 1.85 0.99 88 1007.5
20260507151022 10 306 3.2 9.7 0.00 1.85 0.99 89 1007.4
20260507150022 10 292 1.6 11.3 0.00 1.85 0.99 90 1007.6
20260507145022 10 317 4.8 14.5 0.00 1.85 0.99 91 1007.6
20260507144027 10 305 3.2 11.3 0.03 1.85 0.99 92 1007.6
20260507143023 10 297 3.2 9.7 0.03 1.85 0.99 93 1007.8
20260507142022 10 308 3.2 9.7 0.03 1.85 0.99 93 1007.6
20260507141022 9 306 4.8 14.5 0.03 1.85 0.99 93 1007.6
20260507140022 9 291 3.2 14.5 0.03 1.85 0.99 93 1007.5
20260507135022 9 333 3.2 9.7 0.05 1.85 0.99 94 1007.4
20260507134022 8 317 1.6 4.8 0.03 1.83 0.97 94 1007.1
20260507133022 8 6 0.0 3.2 0.05 1.83 0.97 94 1007.2
20260507132022 8 314 3.2 8.0 0.05 1.83 0.97 94 1007.7
20260507131022 8 299 3.2 6.4 0.05 1.83 0.97 95 1007.7
20260507130023 8 303 1.6 6.4 0.05 1.83 0.97 95 1007.6
20260507125022 8 310 1.6 4.8 0.08 1.80 0.94 95 1007.5
20260507124023 8 256 0.0 3.2 0.08 1.80 0.94 94 1007.3
20260507123022 8 305 1.6 6.4 0.05 1.78 0.91 94 1007.7
20260507122022 8 322 1.6 9.7 0.05 1.78 0.91 95 1007.5
20260507121022 8 2 1.6 6.4 0.10 1.78 0.91 94 1007.3
20260507120022 9 321 3.2 12.9 0.10 1.78 0.91 94 1007.7
20260507115022 9 29 1.6 8.0 0.05 1.73 0.86 94 1007.9
20260507114022 9 309 3.2 9.7 0.05 1.73 0.86 95 1007.0
20260507113023 9 2 1.6 8.0 0.05 1.73 0.86 95 1007.0
20260507112022 9 314 3.2 9.7 0.05 1.73 0.86 94 1007.0
20260507111022 9 334 4.8 12.9 0.05 1.68 0.81 95 1007.2
20260507110022 10 339 3.2 12.9 0.08 1.68 0.81 95 1007.0
20260507105022 10 356 3.2 11.3 0.38 1.68 0.81 96 1007.0
20260507104022 10 339 3.2 9.7 0.51 1.68 0.81 96 1006.5
20260507103022 10 339 3.2 9.7 0.58 1.68 0.81 96 1006.8
20260507102022 10 315 3.2 9.7 0.58 1.68 0.81 97 1006.7
20260507101022 10 320 1.6 11.3 0.53 1.63 0.76 97 1006.5
20260507100022 10 340 3.2 8.0 0.69 1.60 0.74 97 1005.7
20260507095022 10 302 4.8 17.7 0.41 1.30 0.43 96 1006.6
20260507094022 11 314 3.2 11.3 0.30 1.17 0.30 97 1005.5
20260507093022 11 342 4.8 11.3 0.23 1.09 0.23 97 1005.8
20260507092023 12 302 4.8 16.1 0.23 1.09 0.23 97 1006.0
20260507091022 12 296 3.2 12.9 0.23 1.09 0.23 97 1006.0
20260507090022 12 277 1.6 6.4 0.05 0.91 0.05 97 1006.2
20260507085022 12 274 1.6 8.0 0.03 0.89 0.03 97 1006.0
20260507084022 12 252 0.0 1.6 0.00 0.86 0.00 97 1005.2
20260507083022 12 0.0 0.0 0.00 0.86 0.00 97 1005.1
20260507082022 12 191 0.0 1.6 0.00 0.86 0.00 97 1005.1
20260507081022 12 190 0.0 1.6 0.00 0.86 0.00 97 1005.1
20260507080022 12 236 0.0 1.6 0.00 0.86 0.00 97 1005.2
20260507075022 12 235 0.0 3.2 0.00 0.86 0.00 97 1005.3
20260507074022 13 238 0.0 1.6 0.00 0.86 0.00 97 1005.4
20260507073022 13 245 0.0 1.6 0.00 0.86 0.00 97 1005.5
20260507072022 13 321 0.0 4.8 0.00 0.86 0.00 97 1005.8
20260507071022 13 249 0.0 1.6 0.00 0.86 0.00 97 1005.6
20260507070022 13 258 0.0 3.2 0.00 0.86 0.00 97 1005.5
20260507065022 13 295 1.6 8.0 0.00 0.86 0.00 97 1005.5
20260507064022 13 297 1.6 6.4 0.00 0.86 0.00 97 1005.6
20260507063022 13 297 3.2 6.4 0.00 0.86 0.00 97 1005.8
20260507062022 13 291 1.6 8.0 0.00 0.86 0.00 97 1005.7
20260507061022 13 240 1.6 4.8 0.00 0.86 0.00 97 1005.6
20260507060022 13 289 1.6 9.7 0.00 0.86 0.00 97 1005.7
20260507055022 13 299 1.6 6.4 0.00 0.86 0.00 97 1005.9
20260507054022 13 92 3.2 8.0 0.00 0.86 0.00 97 1006.1
20260507053022 13 283 1.6 9.7 0.00 0.86 0.00 97 1006.4
20260507052022 13 286 1.6 6.4 0.00 0.86 0.00 97 1006.5
20260507051022 13 275 1.6 11.3 0.00 0.86 0.00 97 1006.3
20260507050022 13 289 1.6 6.4 0.00 0.86 0.00 97 1006.4
20260507045023 13 272 1.6 8.0 0.00 0.86 0.00 97 1006.5
20260507044022 13 235 1.6 6.4 0.00 0.86 0.00 97 1006.6
20260507043022 13 191 1.6 6.4 0.00 0.86 0.00 97 1006.8
20260507042022 13 297 1.6 6.4 0.00 0.86 0.00 97 1006.9
20260507041022 13 306 3.2 6.4 0.00 0.86 0.00 97 1006.7
20260507040029 13 291 3.2 9.7 0.00 0.86 0.00 97 1006.8
20260507035022 13 305 3.2 12.9 0.00 0.86 0.86 97 1007.0
20260507034022 13 270 3.2 25.7 0.00 0.86 0.86 97 1006.9
20260507033022 13 305 3.2 16.1 0.00 0.86 0.86 97 1006.6
20260507032022 13 162 3.2 11.3 0.00 0.86 0.86 97 1006.5
20260507031022 13 263 1.6 6.4 0.00 0.86 0.86 97 1006.6
20260507030022 13 246 3.2 19.3 0.00 0.86 0.86 97 1006.8
20260507025023 13 302 3.2 9.7 0.00 0.86 0.86 97 1007.1
20260507024023 13 185 4.8 9.7 0.00 0.86 0.86 97 1007.3
20260507023023 13 177 3.2 8.0 0.00 0.86 0.86 97 1007.5
20260507022022 13 292 3.2 8.0 0.03 0.86 0.86 97 1007.7
20260507021022 13 259 3.2 11.3 0.03 0.86 0.86 96 1007.6
20260507020022 13 285 3.2 9.7 0.03 0.86 0.86 96 1007.9
20260507015022 13 197 3.2 11.3 0.08 0.86 0.86 96 1008.2
20260507014022 13 224 3.2 11.3 0.23 0.86 0.86 97 1008.1
20260507013022 13 295 4.8 19.3 0.36 0.86 0.86 97 1008.1
20260507012022 13 138 3.2 11.3 0.41 0.84 0.84 97 1008.3
20260507011022 13 159 3.2 9.7 0.43 0.84 0.84 96 1008.3
20260507010022 13 222 3.2 8.0 0.46 0.84 0.84 96 1008.4